SCP
0 0 0 0 0 0 0 0 0 0 0 0 0 0 0 0 0 0 0 0 0 0 0 0 0 0 0 -0 -0 -0 -0 -0 -0 -0 -0 0 0 0
0 0 0 0 0 0 0 0 0 0 0 0 0 0 0 0 0 0 0 0 0 0 0 0 0 0 0 0 0 0 0 0 0 0 0 0 0 0
0 0 0 0 0 0 0 0 0 0 0 0 0 0 0 0 0 0 0 0 0 0 0 0 0 0 0 0 0 0 0 0 0 0 0 0 0 0
0 0 0 0 0 0 0 0 0 0 0 0 0 0 0 0 0 0 0 0 0 0 0 0 0 0 0 0 0 0 0 0 0 0 0 0 0 0
0 0 0 0 0 0 0 0 0 0 0 0 0 0 0 0 0 0 0 0 0 0 0 0 0 0 0 0 0 0 0 0 0 0 0 0 0 0
0 0 0 0 0 0 0 0 0 0 0 0 0 0 0 0 0 0 0 0 0 0 0 0 0 0 0 0 0 0 0 0 0 0 0 0 0 0
0 0 0 0 0 0 0 0 0 0 0 0 0 0 0 0 0 0 0 0 0 0 0 0 0 0 0 0 0 0 0 0 0 0 0 0 0 0
0 0 0 0 0 0 0 0 0 0 0 0 0 0 0 0 0 0 0 0 0 0 0 0 0 0 0 0 0 0 0 0 0 0 0 0 0 0
0 0 0 0 0 0 0 0 0 0 0 0 0 0 0 0 0 0 0 0 0 0 0 0 0 0 0 0 0 0 0 0 0 0 0 0 0 0
0 0 0 0 0 0 0 0 0 0 0 0 0 0 0 0 0 0 0 0 0 0 0 0 0 0 0 0 0 0 0 0 0 0 0 0 0 0
0 0 0 0 0 0 0 0 0 0 0 0 0 0 0 0 0 0 0 0 0 0 0 0 0 0 0 0 0 0 0 0 0 0 0 0 0 0
0 0 0 0 0 0 0 0 0 0 0 0 0 0 0 0 0 0 0 0 0 0 0 0 0 0 0 0 0 0 0 0 0 0 0 0 0 0
0 0 0 0 0 0 0 0 0 0 0 0 0 0 0 0 0 0 0 0 0 0 0 0 0 0 0 0 0 0 0 0 0 0 0 0 0 0
0 0 0 0 0 0 0 0 0 0 0 0 0 0 0 0 0 0 0 0 0 0 0 0 0 0 0 0 0 0 0 0 0 0 0 0 0 0
0 0 0 0 0 0 0 0 0 0 0 0 0 0 0 0 0 0 0 0 0 0 0 0 0 0 0 0 0 0 0 0 0 0 0 0 0 0
0 0 0 0 0 0 0 0 0 0 0 0 0 0 0 0 0 0 0 0 0 0 0 0 0 0 0 0 0 0 0 0 0 0 0 0 0 0
0 0 0 0 0 0 0 0 0 0 0 0 0 0 0 0 0 0 0 0 0 0 0 0 0 0 0 0 0 0 0 0 0 0 0 0 0 0
0 0 0 0 0 0 0 0 0 0 0 0 0 0 0 0 0 0 0 0 0 0 0 0 0 0 0 0 0 0 0 0 0 0 0 0 0 0
0 0 0 0 0 0 0 0 0 0 0 0 0 0 0 0 0 0 0 0 0 0 0 0 0 0 0 0 0 0 0 0 0 0 0 0 0 0
0 0 0 0 0 0 0 0 0 0 0 0 0 0 0 0 0 0 0 0 0 0 0 0 0 0 0 0 0 0 0 0 0 0 0 0 0 0
0 0 0 0 0 0 0 0 0 0 0 0 0 0 0 0 0 0 0 0 0 0 0 0 0 0 0 0 0 0 0 0 0 0 0 0 0 0
0 0 0 0 0 0 0 0 0 0 0 0 0 0 0 0 0 0 0 0 0 0 0 0 0 0 0 0 0 0 0 0 0 0 0 0 0 0
0 0 0 0 0 0 0 0 0 0 0 0 0 0 0 0 0 0 0 0 0 0 0 0 0 0 0 0 0 0 0 0 0 0 0 0 0 0
Wind_Speed_500mb
11 15 17 20 22 22 22 26 33 31 31 24 14 9 6 4 12 11 9 12 15 17 17 20 22 25 28 35 41 46 36 16 19 37 42 40 37 39
11 16 18 18 18 23 26 25 27 37 21 23 19 15 12 9 14 10 7 5 6 9 14 16 21 23 25 29 34 38 41 35 23 17 3 23 31 13
10 11 16 18 16 17 23 24 28 35 34 21 21 19 12 13 11 9 5 4 5 3 8 14 17 20 22 24 27 29 33 33 29 22 15 14 6 3
16 14 15 16 13 13 18 22 25 34 39 34 28 23 19 16 10 8 6 7 8 8 9 13 15 17 20 19 23 26 28 29 30 31 27 21 15 10
23 18 18 18 16 16 19 22 24 28 32 32 29 30 23 17 12 9 9 6 5 7 8 12 13 16 20 21 23 25 26 26 28 29 24 20 17 14
29 25 21 20 20 20 21 25 26 27 29 29 30 27 22 18 12 13 14 11 8 6 9 13 14 17 20 23 27 28 27 25 24 22 21 18 15 14
33 31 26 23 25 22 18 19 21 26 28 30 32 29 22 15 13 11 16 18 8 4 5 7 11 18 25 27 25 25 27 28 26 23 20 24 23 17
36 33 31 28 27 26 23 21 18 21 25 28 29 26 17 14 13 10 9 13 10 8 9 13 17 21 21 23 27 31 33 30 27 26 21 24 28 29
40 36 35 31 33 31 30 29 27 26 18 8 22 21 13 13 16 14 8 8 7 5 3 6 10 15 17 21 32 37 41 35 32 28 26 25 26 28
47 37 37 34 37 37 37 34 32 34 33 24 16 16 13 17 20 12 10 9 9 7 7 7 11 15 14 23 36 38 39 32 34 37 34 27 31 27
50 46 39 36 40 41 39 37 36 35 36 34 30 25 22 24 17 10 10 11 11 10 10 9 14 21 14 25 38 37 33 26 34 33 33 32 30 25
62 58 46 40 50 48 46 42 39 39 40 42 39 34 34 26 16 8 3 5 7 7 8 7 14 23 20 23 41 36 31 29 30 25 24 26 26 25
72 66 55 49 60 56 52 47 40 37 42 40 38 41 38 30 21 14 8 3 5 7 8 9 14 20 27 38 45 44 43 43 38 29 25 20 17 16
65 69 67 55 63 59 55 47 42 40 42 43 43 45 40 31 23 19 17 8 2 3 7 10 17 23 31 39 46 52 47 45 34 33 31 24 17 19
53 65 61 54 61 60 58 54 53 51 49 49 46 48 41 27 26 29 26 16 7 8 10 15 18 24 31 35 43 50 53 46 37 35 17 27 30 25
61 70 50 50 64 64 64 65 62 60 57 55 50 44 43 39 30 32 27 18 10 11 15 19 24 28 31 33 39 45 43 40 36 30 26 32 34 29
55 68 59 60 72 73 73 75 72 67 62 56 54 52 51 45 39 35 28 24 19 17 17 21 25 27 29 34 40 41 41 35 30 27 30 37 28 29
63 80 73 72 77 85 83 82 80 75 68 62 55 57 54 49 48 41 34 31 26 27 25 24 27 31 33 35 36 42 38 26 22 23 28 31 33 33
66 88 84 83 74 88 87 88 87 83 70 65 59 60 56 51 54 44 38 33 30 31 31 28 27 29 36 40 39 40 24 19 25 24 22 31 34 36
66 80 92 90 85 85 90 89 89 83 74 69 66 66 59 58 60 49 43 37 31 30 32 30 29 29 31 36 41 34 20 22 27 25 28 30 33 27
65 72 76 95 93 86 93 96 94 86 82 71 65 66 63 63 64 51 46 39 35 33 35 32 27 30 31 34 37 25 16 23 24 24 29 33 35 33
62 58 70 77 91 85 91 98 93 87 84 77 63 60 64 66 64 52 48 43 35 31 33 32 31 30 32 33 31 21 20 22 18 22 23 25 34 36
54 58 62 74 89 89 91 97 94 91 90 84 72 60 66 71 66 57 50 41 35 34 34 33 32 31 32 31 27 21 24 28 25 22 15 18 24 32
Wind_Direction_500mb
216 212 218 223 227 235 233 238 243 226 229 231 226 251 286 218 176 160 123 91 69 56 48 42 43 42 32 27 28 31 49 107 182 199 202 218 235 247
242 229 227 232 236 240 237 235 236 237 231 231 237 252 265 231 186 177 179 165 85 50 45 36 28 31 30 28 27 33 44 44 43 47 148 242 251 287
251 240 239 242 250 240 239 230 225 231 236 227 231 238 233 192 182 185 184 206 235 312 3 15 15 17 20 20 25 26 26 30 37 37 20 30 34 265
257 252 253 252 249 232 226 233 227 227 234 240 245 223 201 184 171 168 187 213 232 256 326 359 2 6 7 6 11 14 15 14 12 6 4 6 356 337
251 253 252 245 235 233 231 225 227 228 228 232 230 208 197 189 193 198 205 248 244 264 312 337 350 353 357 356 352 353 353 349 349 346 343 348 351 342
249 245 242 237 230 227 236 230 228 223 215 210 207 193 189 192 208 220 225 238 245 271 310 323 331 331 334 336 335 334 329 326 321 312 299 297 307 321
243 245 239 230 222 223 217 213 204 205 198 190 186 178 179 197 211 207 213 216 231 272 290 292 303 316 322 333 345 346 341 334 329 322 300 280 276 282
238 240 242 230 223 216 210 194 205 212 201 187 183 180 178 190 199 194 207 199 219 263 276 296 319 335 349 8 9 1 356 345 328 320 308 288 278 269
236 234 238 235 221 213 207 202 206 206 212 203 198 193 196 196 189 170 182 196 214 251 317 325 347 357 351 11 7 359 354 346 339 330 299 294 288 272
233 233 238 242 228 215 208 208 202 204 207 206 211 217 221 195 165 154 137 117 97 73 57 54 20 18 11 21 7 354 344 336 341 346 348 315 278 280
226 226 226 238 234 221 213 203 198 202 206 213 206 212 201 176 162 139 114 96 85 78 62 45 23 7 25 18 9 356 348 336 339 345 347 354 351 294
218 219 212 247 230 224 218 211 200 202 204 199 198 198 184 177 181 171 123 75 60 89 49 38 13 5 345 355 6 1 358 343 339 342 346 351 355 358
221 215 221 221 224 220 218 213 209 198 201 205 205 196 195 201 194 204 194 121 41 40 9 351 357 348 331 334 351 357 354 345 341 337 325 335 356 353
239 224 224 232 218 215 215 210 201 199 199 202 202 202 203 206 204 213 211 192 86 332 350 325 324 328 326 325 335 346 348 347 353 359 354 355 309 306
246 242 233 233 221 217 213 205 198 200 200 203 207 208 209 208 221 225 217 214 235 285 298 298 307 317 315 313 322 339 338 341 343 342 347 349 345 330
244 230 232 229 219 217 212 206 207 207 210 211 213 214 213 217 221 211 216 214 246 273 284 295 302 303 305 304 313 329 331 323 329 327 327 333 332 329
238 226 224 219 214 216 213 212 210 209 210 212 215 219 218 217 213 210 214 224 248 268 283 290 308 305 303 299 310 322 320 315 321 320 319 323 334 343
230 226 224 220 221 216 215 214 216 215 211 209 211 217 221 221 211 216 221 234 251 267 276 288 303 308 305 300 312 314 316 308 315 318 321 323 327 341
241 228 226 223 224 219 220 219 220 220 216 213 212 219 222 219 213 218 226 235 248 263 268 283 294 308 301 300 314 319 311 317 320 321 323 327 325 333
244 241 232 232 230 228 226 223 221 221 221 218 215 220 222 220 217 220 225 236 252 265 263 274 285 301 296 297 307 319 302 308 324 319 321 324 329 334
254 247 242 237 233 236 230 226 224 222 219 214 215 222 222 222 219 222 226 234 243 258 260 272 281 293 292 297 304 309 303 302 308 323 329 327 333 334
247 245 248 241 234 236 234 230 227 223 216 212 214 217 221 218 217 213 220 231 246 254 266 261 271 286 288 295 298 293 311 320 300 308 318 322 331 328
249 248 240 236 238 241 234 233 229 224 214 209 209 207 217 211 212 218 228 227 238 244 256 258 268 278 282 289 280 280 298 314 313 315 326 318 327 340
Wind_Speed_850mb
11 15 17 20 22 22 22 26 33 31 31 24 14 9 6 4 12 11 9 12 15 17 17 20 22 25 28 35 41 46 36 16 19 37 42 40 37 39
11 16 18 18 18 23 26 25 27 37 21 23 19 15 12 9 14 10 7 5 6 9 14 16 21 23 25 29 34 38 41 35 23 17 3 23 31 13
10 11 16 18 16 17 23 24 28 35 34 21 21 19 12 13 11 9 5 4 5 3 8 14 17 20 22 24 27 29 33 33 29 22 15 14 6 3
16 14 15 16 13 13 18 22 25 34 39 34 28 23 19 16 10 8 6 7 8 8 9 13 15 17 20 19 23 26 28 29 30 31 27 21 15 10
23 18 18 18 16 16 19 22 24 28 32 32 29 30 23 17 12 9 9 6 5 7 8 12 13 16 20 21 23 25 26 26 28 29 24 20 17 14
29 25 21 20 20 20 21 25 26 27 29 29 30 27 22 18 12 13 14 11 8 6 9 13 14 17 20 23 27 28 27 25 24 22 21 18 15 14
33 31 26 23 25 22 18 19 21 26 28 30 32 29 22 15 13 11 16 18 8 4 5 7 11 18 25 27 25 25 27 28 26 23 20 24 23 17
36 33 31 28 27 26 23 21 18 21 25 28 29 26 17 14 13 10 9 13 10 8 9 13 17 21 21 23 27 31 33 30 27 26 21 24 28 29
40 36 35 31 33 31 30 29 27 26 18 8 22 21 13 13 16 14 8 8 7 5 3 6 10 15 17 21 32 37 41 35 32 28 26 25 26 28
47 37 37 34 37 37 37 34 32 34 33 24 16 16 13 17 20 12 10 9 9 7 7 7 11 15 14 23 36 38 39 32 34 37 34 27 31 27
50 46 39 36 40 41 39 37 36 35 36 34 30 25 22 24 17 10 10 11 11 10 10 9 14 21 14 25 38 37 33 26 34 33 33 32 30 25
62 58 46 40 50 48 46 42 39 39 40 42 39 34 34 26 16 8 3 5 7 7 8 7 14 23 20 23 41 36 31 29 30 25 24 26 26 25
72 66 55 49 60 56 52 47 40 37 42 40 38 41 38 30 21 14 8 3 5 7 8 9 14 20 27 38 45 44 43 43 38 29 25 20 17 16
65 69 67 55 63 59 55 47 42 40 42 43 43 45 40 31 23 19 17 8 2 3 7 10 17 23 31 39 46 52 47 45 34 33 31 24 17 19
53 65 61 54 61 60 58 54 53 51 49 49 46 48 41 27 26 29 26 16 7 8 10 15 18 24 31 35 43 50 53 46 37 35 17 27 30 25
61 70 50 50 64 64 64 65 62 60 57 55 50 44 43 39 30 32 27 18 10 11 15 19 24 28 31 33 39 45 43 40 36 30 26 32 34 29
55 68 59 60 72 73 73 75 72 67 62 56 54 52 51 45 39 35 28 24 19 17 17 21 25 27 29 34 40 41 41 35 30 27 30 37 28 29
63 80 73 72 77 85 83 82 80 75 68 62 55 57 54 49 48 41 34 31 26 27 25 24 27 31 33 35 36 42 38 26 22 23 28 31 33 33
66 88 84 83 74 88 87 88 87 83 70 65 59 60 56 51 54 44 38 33 30 31 31 28 27 29 36 40 39 40 24 19 25 24 22 31 34 36
66 80 92 90 85 85 90 89 89 83 74 69 66 66 59 58 60 49 43 37 31 30 32 30 29 29 31 36 41 34 20 22 27 25 28 30 33 27
65 72 76 95 93 86 93 96 94 86 82 71 65 66 63 63 64 51 46 39 35 33 35 32 27 30 31 34 37 25 16 23 24 24 29 33 35 33
62 58 70 77 91 85 91 98 93 87 84 77 63 60 64 66 64 52 48 43 35 31 33 32 31 30 32 33 31 21 20 22 18 22 23 25 34 36
54 58 62 74 89 89 91 97 94 91 90 84 72 60 66 71 66 57 50 41 35 34 34 33 32 31 32 31 27 21 24 28 25 22 15 18 24 32
Wind_Direction_850mb
216 212 218 223 227 235 233 238 243 226 229 231 226 251 286 218 176 160 123 91 69 56 48 42 43 42 32 27 28 31 49 107 182 199 202 218 235 247
242 229 227 232 236 240 237 235 236 237 231 231 237 252 265 231 186 177 179 165 85 50 45 36 28 31 30 28 27 33 44 44 43 47 148 242 251 287
251 240 239 242 250 240 239 230 225 231 236 227 231 238 233 192 182 185 184 206 235 312 3 15 15 17 20 20 25 26 26 30 37 37 20 30 34 265
257 252 253 252 249 232 226 233 227 227 234 240 245 223 201 184 171 168 187 213 232 256 326 359 2 6 7 6 11 14 15 14 12 6 4 6 356 337
251 253 252 245 235 233 231 225 227 228 228 232 230 208 197 189 193 198 205 248 244 264 312 337 350 353 357 356 352 353 353 349 349 346 343 348 351 342
249 245 242 237 230 227 236 230 228 223 215 210 207 193 189 192 208 220 225 238 245 271 310 323 331 331 334 336 335 334 329 326 321 312 299 297 307 321
243 245 239 230 222 223 217 213 204 205 198 190 186 178 179 197 211 207 213 216 231 272 290 292 303 316 322 333 345 346 341 334 329 322 300 280 276 282
238 240 242 230 223 216 210 194 205 212 201 187 183 180 178 190 199 194 207 199 219 263 276 296 319 335 349 8 9 1 356 345 328 320 308 288 278 269
236 234 238 235 221 213 207 202 206 206 212 203 198 193 196 196 189 170 182 196 214 251 317 325 347 357 351 11 7 359 354 346 339 330 299 294 288 272
233 233 238 242 228 215 208 208 202 204 207 206 211 217 221 195 165 154 137 117 97 73 57 54 20 18 11 21 7 354 344 336 341 346 348 315 278 280
226 226 226 238 234 221 213 203 198 202 206 213 206 212 201 176 162 139 114 96 85 78 62 45 23 7 25 18 9 356 348 336 339 345 347 354 351 294
218 219 212 247 230 224 218 211 200 202 204 199 198 198 184 177 181 171 123 75 60 89 49 38 13 5 345 355 6 1 358 343 339 342 346 351 355 358
221 215 221 221 224 220 218 213 209 198 201 205 205 196 195 201 194 204 194 121 41 40 9 351 357 348 331 334 351 357 354 345 341 337 325 335 356 353
239 224 224 232 218 215 215 210 201 199 199 202 202 202 203 206 204 213 211 192 86 332 350 325 324 328 326 325 335 346 348 347 353 359 354 355 309 306
246 242 233 233 221 217 213 205 198 200 200 203 207 208 209 208 221 225 217 214 235 285 298 298 307 317 315 313 322 339 338 341 343 342 347 349 345 330
244 230 232 229 219 217 212 206 207 207 210 211 213 214 213 217 221 211 216 214 246 273 284 295 302 303 305 304 313 329 331 323 329 327 327 333 332 329
238 226 224 219 214 216 213 212 210 209 210 212 215 219 218 217 213 210 214 224 248 268 283 290 308 305 303 299 310 322 320 315 321 320 319 323 334 343
230 226 224 220 221 216 215 214 216 215 211 209 211 217 221 221 211 216 221 234 251 267 276 288 303 308 305 300 312 314 316 308 315 318 321 323 327 341
241 228 226 223 224 219 220 219 220 220 216 213 212 219 222 219 213 218 226 235 248 263 268 283 294 308 301 300 314 319 311 317 320 321 323 327 325 333
244 241 232 232 230 228 226 223 221 221 221 218 215 220 222 220 217 220 225 236 252 265 263 274 285 301 296 297 307 319 302 308 324 319 321 324 329 334
254 247 242 237 233 236 230 226 224 222 219 214 215 222 222 222 219 222 226 234 243 258 260 272 281 293 292 297 304 309 303 302 308 323 329 327 333 334
247 245 248 241 234 236 234 230 227 223 216 212 214 217 221 218 217 213 220 231 246 254 266 261 271 286 288 295 298 293 311 320 300 308 318 322 331 328
249 248 240 236 238 241 234 233 229 224 214 209 209 207 217 211 212 218 228 227 238 244 256 258 268 278 282 289 280 280 298 314 313 315 326 318 327 340